Regional Weather Roundup
Issued by NWS Goodland, KS

Home | Current Version | Previous Version | Graphics & Text | Print | Product List | Glossary On
Versions: 1 2 3 4 5 6 7 8 9 10 11 12 13 14 15 16 17 18 19 20 21 22 23 24 25 26 27 28 29 30 31 32 33 34 35 36 37 38 39 40 41 42 43 44 45 46 47 48 49 50
000
ASUS43 KGLD 271308
RWRGLD

GOODLAND FORECAST AREA HOURLY WEATHER ROUNDUP
NATIONAL WEATHER SERVICE GOODLAND KS
700 AM MDT WED AUG 27 2014

...OFFICIAL OBSERVATIONS...

CITY           SKY/WX    TMP DP  RH WIND       PRES   REMARKS
GOODLAND KS    CLOUDY    64  63  96 S13       30.15R
HILL CITY KS   CLOUDY    70  67  90 CALM      30.12S
IMPERIAL NEB   PTCLDY    63  61  93 SE8       30.12R
MCCOOK NEB     CLOUDY    67  66  97 SE9       30.13R
AKRON CO       MOCLDY    61  59  93 SE9       30.15R
BURLINGTON CO  CLOUDY    62  61  96 S10       30.16R
LIMON CO       CLOUDY    60  59  96 SE8       30.18S
$$

...UNOFFICIAL OBSERVATIONS...

CITY           SKY/WX    TMP DP  RH WIND       PRES   REMARKS
COLBY KS       CLOUDY    66  66 100 SE10      30.16R FOG
GOVE KS          N/A     68  32  26 CALM        N/A
NORTON KS      MOCLDY    68  64  88 SE7       30.12R
SHARON SPRINGS   N/A     64  62  95 S6          N/A
WAKEENEY KS      N/A     69  67  92 MISG        N/A
KIT CARSON CO    N/A     62  59  91 MISG        N/A
YUMA CO          N/A     61  60  95 SE7         N/A
$$



USA.gov is the U.S. government's official web portal to all federal, state and local government web resources and services.